(118923) = 2000 VM51 = 2002 CS22

Discovered at Socorro on 2000-11-03 by LINEAR.

Orbit

Orbit type: Main Belt

Note: WebGL enabled browser required.

epoch2023-09-13.0
epoch JD2460200.5
perihelion date2020-02-24.23673
perihelion JD2458903.73673
argument of perihelion (°)343.02562
ascending node (°)328.99875
inclination (°)3.90566
eccentricity0.0670598
perihelion distance (AU)2.3733882
Tisserand w.r.t. Jupiter3.4
ΔV w.r.t. Earth (km/sec)9.7
semimajor axis (AU)2.5439874
mean anomaly (°)314.98661
mean daily motion (°/day)0.24290220
aphelion distance (AU)2.715
period (years)4.06
P-vector [x]0.66979583
P-vector [y]-0.67311769
P-vector [z]-0.31350617
Q-vector [x]0.74171610
Q-vector [y]0.58654457
Q-vector [z]0.32530401
absolute magnitude15.61
phase slope0.15
uncertainty0
referenceMPEC 2024-A34
observations used1255
oppositions18
arc length (days)10693
first opposition used1994
last opposition used2023
residual rms (arc-secs)0.70
perturbers coarse indicatorM-v
perturbers precise indicator003Ek
first observation date used1994-03-10.0
last observation date used2023-06-19.0
computer nameMPCLINUX
JD of orbit computation2456789.168014
perihelion JD uncertainty (days)2.0720E-04
argument of perihelion uncertainty (°)7.3983E-05
ascending node uncertainty (°)5.7292E-05
inclination uncertainty (°)4.4634E-06
eccentricity uncertainty 5.5286E-08
perihelion distance uncertainty (AU)1.4074E-07
Minimum Orbit Intersection Distances (in AU)
for orbit epoch: 2460200.5, reference: E2024-A34
Mercury1.93421
Venus1.64558
Earth1.35893
Mars0.95702
Jupiter2.45126
Saturn6.38082
Uranus15.7572
Neptune27.3185

Observations

1285 total observations over interval: 1994 03 10.20999 – 2023 06 19.311009
These data are available for download (format description).

Date (UT) J2000 RA J2000 Dec Magn Location Ref
1994 03 10.20999 10 50 34.81 +05 38 09.7   691 – Steward Observatory, Kitt Peak-Spacewatch MPS 49270
1994 03 10.27568 10 50 30.87 +05 38 26.6 18.3 V 691 – Steward Observatory, Kitt Peak-Spacewatch MPS 49270
1994 03 10.34237 10 50 27.28 +05 38 43.2   691 – Steward Observatory, Kitt Peak-Spacewatch MPS 49270
1998 03 03.20170 10 30 48.03 +08 18 03.1 18.7   704 – Lincoln Laboratory ETS, New Mexico MPS 52200
1998 03 03.22211 10 30 46.98 +08 18 09.7 18.8   704 – Lincoln Laboratory ETS, New Mexico MPS 52200
1998 03 03.24271 10 30 45.78 +08 18 14.3 18.8   704 – Lincoln Laboratory ETS, New Mexico MPS 52200
1998 03 03.26300 10 30 44.34 +08 18 19.7 18.9   704 – Lincoln Laboratory ETS, New Mexico MPS 52200
1998 03 04.25818 10 29 48.68 +08 22 21.8 18.8   704 – Lincoln Laboratory ETS, New Mexico MPS 52200
1998 03 04.27832 10 29 47.48 +08 22 26.7 18.8   704 – Lincoln Laboratory ETS, New Mexico MPS 52200
1998 03 04.29844 10 29 46.29 +08 22 29.7 19.1   704 – Lincoln Laboratory ETS, New Mexico MPS 52200
1998 03 04.33880 10 29 43.79 +08 22 38.3 19.6   704 – Lincoln Laboratory ETS, New Mexico MPS 52200
2000 10 25.35763 03 13 54.53 +24 14 13.5 19.4   704 – Lincoln Laboratory ETS, New Mexico MPS 22778
2000 10 25.37147 03 13 53.67 +24 14 12.4 19.8   704 – Lincoln Laboratory ETS, New Mexico MPS 22778
2000 10 25.38997 03 13 52.66 +24 14 10.3 20.1   704 – Lincoln Laboratory ETS, New Mexico MPS 22778
2000 10 25.41838 03 13 50.98 +24 14 05.7 20.2   704 – Lincoln Laboratory ETS, New Mexico MPS 22778
2000 11 03.21967 03 05 22.32 +23 50 52.1 19.1   704 – Lincoln Laboratory ETS, New Mexico MPS 21738
2000 11 03.23314 03 05 21.55 +23 50 49.2 18.8   704 – Lincoln Laboratory ETS, New Mexico MPS 21738
2000 11 03.24663 03 05 20.70 +23 50 46.7 19.1   704 – Lincoln Laboratory ETS, New Mexico MPS 21738
2000 11 03.26012 03 05 19.92 +23 50 44.5 19.1   704 – Lincoln Laboratory ETS, New Mexico MPS 21738
2000 11 03.27362 03 05 19.00 +23 50 42.0 18.9   704 – Lincoln Laboratory ETS, New Mexico MPS 21738
2000 11 05.32797 03 03 13.93 +23 43 50.7 18.4   704 – Lincoln Laboratory ETS, New Mexico MPS 21738
2000 11 05.34171 03 03 13.04 +23 43 47.1 18.5   704 – Lincoln Laboratory ETS, New Mexico MPS 21738
2000 11 05.35555 03 03 12.14 +23 43 44.4 19.1   704 – Lincoln Laboratory ETS, New Mexico MPS 21738
2000 11 05.37206 03 03 11.14 +23 43 41.8 18.2   704 – Lincoln Laboratory ETS, New Mexico MPS 21738
2000 11 20.22509 02 48 23.03 +22 42 48.9 18.9   704 – Lincoln Laboratory ETS, New Mexico MPS 22778
2000 11 20.26967 02 48 20.46 +22 42 36.8 19.1   704 – Lincoln Laboratory ETS, New Mexico MPS 22778
2000 11 20.28453 02 48 19.65 +22 42 33.0 19.2   704 – Lincoln Laboratory ETS, New Mexico MPS 22778
2000 11 29.22534 02 40 45.59 +22 01 51.3 19.4   704 – Lincoln Laboratory ETS, New Mexico MPS 22778
2000 11 29.24132 02 40 44.82 +22 01 47.5 19.3   704 – Lincoln Laboratory ETS, New Mexico MPS 22778
2000 11 29.25626 02 40 44.17 +22 01 42.6 19.5   704 – Lincoln Laboratory ETS, New Mexico MPS 22778
2000 11 29.27289 02 40 43.40 +22 01 38.4 19.3   704 – Lincoln Laboratory ETS, New Mexico MPS 22778
2000 11 29.28877 02 40 42.61 +22 01 34.4 19.7   704 – Lincoln Laboratory ETS, New Mexico MPS 22778
2002 01 26.50609 10 35 12.67 +09 14 39.8 19.7   644 – Palomar Mountain/NEAT MPS 50138
2002 01 26.51648 10 35 12.25 +09 14 41.2 20.1   644 – Palomar Mountain/NEAT MPS 50138
2002 01 26.52713 10 35 11.85 +09 14 42.5 20.0   644 – Palomar Mountain/NEAT MPS 50138
2002 02 05.45804 10 27 55.39 +09 43 39.9 19.8   644 – Palomar Mountain/NEAT MPS 50138
2002 02 05.46835 10 27 54.86 +09 43 42.0 20.4   644 – Palomar Mountain/NEAT MPS 50138
2002 02 05.47871 10 27 54.35 +09 43 44.0 19.9   644 – Palomar Mountain/NEAT MPS 50138
2002 02 07.32089 10 26 21.66 +09 50 05.0 19.1   704 – Lincoln Laboratory ETS, New Mexico MPS 52200
2002 02 07.33534 10 26 20.83 +09 50 07.1 19.4   704 – Lincoln Laboratory ETS, New Mexico MPS 52200
2002 02 07.34970 10 26 20.05 +09 50 10.0 19.4   704 – Lincoln Laboratory ETS, New Mexico MPS 52200
2002 02 07.56479 10 26 08.89 +09 50 56.8 20.5   608 – Haleakala-AMOS MPS 50138
2002 02 07.57554 10 26 08.33 +09 50 59.0 20.1   608 – Haleakala-AMOS MPS 50138
2002 02 07.58573 10 26 07.76 +09 51 01.0 20.3   608 – Haleakala-AMOS MPS 50138
2002 02 09.37468 10 24 34.34 +09 57 24.8 19.9 V 691 – Steward Observatory, Kitt Peak-Spacewatch MPS 50138
2002 02 09.39579 10 24 33.17 +09 57 29.4 19.8 V 691 – Steward Observatory, Kitt Peak-Spacewatch MPS 50138
2002 02 09.41687 10 24 32.02 +09 57 34.0 19.8 V 691 – Steward Observatory, Kitt Peak-Spacewatch MPS 50138
2002 02 10.31403 10 23 44.30 +10 00 51.8 18.7   704 – Lincoln Laboratory ETS, New Mexico MPS 50138
2002 02 10.32819 10 23 43.50 +10 00 55.0 19.0   704 – Lincoln Laboratory ETS, New Mexico MPS 50138
2002 02 10.34236 10 23 42.70 +10 00 58.0 18.5   704 – Lincoln Laboratory ETS, New Mexico MPS 50138
2002 02 10.35653 10 23 41.94 +10 01 01.1 19.2   704 – Lincoln Laboratory ETS, New Mexico MPS 50138
2002 02 10.37070 10 23 41.12 +10 01 04.3 19.2   704 – Lincoln Laboratory ETS, New Mexico MPS 50138
2002 02 12.30035 10 21 56.33 +10 08 17.0 18.6   704 – Lincoln Laboratory ETS, New Mexico MPS 52200
2002 02 12.31397 10 21 55.48 +10 08 20.4 19.1   704 – Lincoln Laboratory ETS, New Mexico MPS 52200
2002 02 12.31448 10 21 55.51 +10 08 20.5 19.3   704 – Lincoln Laboratory ETS, New Mexico MPS 52200
2002 02 12.32812 10 21 54.71 +10 08 23.7 19.6   704 – Lincoln Laboratory ETS, New Mexico MPS 52200
2002 02 12.32863 10 21 54.74 +10 08 23.3 19.3   704 – Lincoln Laboratory ETS, New Mexico MPS 52200
2002 02 12.34227 10 21 53.87 +10 08 26.5 19.3   704 – Lincoln Laboratory ETS, New Mexico MPS 52200
2002 02 12.34278 10 21 53.93 +10 08 26.7 18.9   704 – Lincoln Laboratory ETS, New Mexico MPS 52200
2002 02 12.34535 10 21 53.82 +10 08 27.1 19.4   704 – Lincoln Laboratory ETS, New Mexico MPS 52200
2002 02 12.35644 10 21 53.09 +10 08 29.8 19.2   704 – Lincoln Laboratory ETS, New Mexico MPS 52200
2002 02 12.35695 10 21 53.11 +10 08 30.0 19.0   704 – Lincoln Laboratory ETS, New Mexico MPS 52200
2002 02 12.36036 10 21 52.96 +10 08 30.3 19.5   704 – Lincoln Laboratory ETS, New Mexico MPS 52200
2002 02 12.37061 10 21 52.26 +10 08 33.6 19.1   704 – Lincoln Laboratory ETS, New Mexico MPS 52200
2002 02 12.37502 10 21 52.10 +10 08 33.7 19.4   704 – Lincoln Laboratory ETS, New Mexico MPS 52200
2002 02 13.33250 10 20 59.20 +10 12 12.3 20.6   644 – Palomar Mountain/NEAT MPS 52200
2002 02 13.40179 10 20 55.22 +10 12 28.0 19.3   644 – Palomar Mountain/NEAT MPS 52200
2002 02 13.46421 10 20 51.62 +10 12 42.4 20.5   644 – Palomar Mountain/NEAT MPS 52200
2002 02 20.24094 10 14 26.45 +10 39 06.5 19.1   704 – Lincoln Laboratory ETS, New Mexico MPS 52200
2002 02 20.25470 10 14 25.68 +10 39 08.8 19.7   704 – Lincoln Laboratory ETS, New Mexico MPS 52200
2002 02 20.26844 10 14 24.87 +10 39 12.3 19.5   704 – Lincoln Laboratory ETS, New Mexico MPS 52200
2002 02 20.28231 10 14 24.05 +10 39 15.7 19.4   704 – Lincoln Laboratory ETS, New Mexico MPS 52200
2002 02 20.29611 10 14 23.22 +10 39 18.5 19.5   704 – Lincoln Laboratory ETS, New Mexico MPS 52200
2002 02 21.22164 10 13 29.96 +10 42 55.7 19.0 V 333 – Desert Eagle Observatory MPS 50138
2002 02 21.24508 10 13 28.56 +10 43 01.1 19.2 V 333 – Desert Eagle Observatory MPS 50138
2002 02 21.26822 10 13 27.20 +10 43 07.2 19.0 V 333 – Desert Eagle Observatory MPS 50138
2002 02 24.27048 10 10 34.63 +10 54 45.9 19.8   644 – Palomar Mountain/NEAT MPS 52200
2002 02 24.29153 10 10 33.42 +10 54 51.3 19.0   644 – Palomar Mountain/NEAT MPS 52200
2002 02 24.31260 10 10 32.17 +10 54 56.2 19.5   644 – Palomar Mountain/NEAT MPS 52200
2002 03 09.30047 09 58 49.09 +11 40 42.8 19.6   704 – Lincoln Laboratory ETS, New Mexico MPS 52200
2002 03 09.32040 09 58 48.01 +11 40 46.2 19.5   704 – Lincoln Laboratory ETS, New Mexico MPS 52200
2002 03 09.34036 09 58 46.99 +11 40 48.2 19.7   704 – Lincoln Laboratory ETS, New Mexico MPS 52200
2002 03 09.36025 09 58 46.00 +11 40 54.4 19.5   704 – Lincoln Laboratory ETS, New Mexico MPS 52200
2002 03 12.29070 09 56 26.28 +11 49 30.7 19.3   644 – Palomar Mountain/NEAT MPS 52200
2002 03 12.31134 09 56 25.27 +11 49 34.0 19.5   644 – Palomar Mountain/NEAT MPS 52200
